Group_ship,Cruise,JD_GMT,Date_DDMMYYYY,TIME_HH:MM:SS,Lat_dec_degree,Long_dec_degree,xCO2eq_ppm,xCO2a_ppm,Pres_Equi_hPa,Pres_sealevel_hPa,EqTemp_C,SST(TSG)_C,Sal(TSG)_Permil,Water_flow_l/min,Gasflow_IR_ml/min,Temp_IR_C,Pres_IR_hPa,Ship_heading_true_degree,Ship_speed_knot,Wind_dir_rel_degree,Wind_speed_rel_m/s,fCO2W@SST_uatm,Qcflag_water,fCO2a_uatm,Qcflag_air,dfCO2_uatm,Fluoro_ug/l,Wind_speed_true_m/s,Wind_dir_true_degree,Air_temp_C,Oxygen
AOML_Explorer,Ex0737N,252.975,09092007,23:24:13,40.255,-73.610,382.29,-9.00,1015.15,1013.40,22.90,22.82,31.677,1.14,94.21,32.17,1015.15,139.90,22.10,357.00,19.04,370.16,2,-9.00,9,-9.00,0.11,7.78,131.29,23.00,257.87
AOML_Explorer,Ex0737N,252.977,09092007,23:26:46,40.243,-73.597,379.57,-9.00,1015.17,1013.50,22.76,22.97,31.687,1.13,94.24,32.17,1015.17,140.10,22.10,358.00,19.56,371.98,2,-9.00,9,-9.00,0.09,8.24,134.08,22.99,256.43
AOML_Explorer,Ex0737N,252.979,09092007,23:29:19,40.230,-73.585,385.62,-9.00,1015.24,1013.50,22.84,22.72,32.162,1.15,94.25,32.16,1015.24,146.20,22.10,349.00,19.56,372.84,2,-9.00,9,-9.00,0.10,8.72,120.31,23.00,254.80
AOML_Explorer,Ex0737N,252.980,09092007,23:31:52,40.218,-73.573,396.65,-9.00,1015.26,1013.40,22.88,22.98,32.165,1.16,94.14,32.16,1015.26,144.70,22.10,355.00,18.53,387.10,2,-9.00,9,-9.00,0.09,7.31,130.79,22.96,253.93
AOML_Explorer,Ex0737N,252.982,09092007,23:34:25,40.205,-73.561,399.14,-9.00,1015.27,1013.40,22.76,22.89,32.251,1.13,94.47,32.15,1015.27,144.60,22.10,351.00,19.56,389.91,2,-9.00,9,-9.00,0.09,8.57,122.35,22.95,254.89
AOML_Explorer,Ex0737N,252.984,09092007,23:36:58,40.192,-73.549,396.73,-9.00,1015.29,1013.30,22.93,22.90,32.255,1.17,94.28,32.15,1015.29,144.50,22.10,347.00,19.04,384.96,2,-9.00,9,-9.00,0.09,8.44,112.69,22.93,254.52
AOML_Explorer,Ex0737N,252.986,09092007,23:39:31,40.179,-73.537,393.98,-9.00,1015.33,1013.40,22.88,22.80,32.291,1.16,94.22,32.14,1015.33,144.20,22.10,350.00,18.53,381.62,2,-9.00,9,-9.00,0.10,7.64,118.25,22.87,255.04
AOML_Explorer,Ex0737N,252.988,09092007,23:42:04,40.167,-73.525,392.23,-9.00,1015.30,1013.50,22.94,22.07,31.931,1.21,94.34,32.14,1015.30,141.50,22.10,350.00,18.53,367.88,2,-9.00,9,-9.00,0.13,7.73,114.06,22.88,256.24
AOML_Explorer,Ex0737N,252.989,09092007,23:44:37,40.155,-73.512,392.82,-9.00,1015.38,1013.50,22.45,21.64,31.872,1.19,94.17,32.14,1015.38,138.40,22.10,350.00,17.50,369.65,2,-9.00,9,-9.00,0.15,6.66,110.26,22.91,257.76
AOML_Explorer,Ex0737N,252.991,09092007,23:47:10,40.143,-73.498,403.04,-9.00,1015.42,1013.40,22.13,21.89,31.863,1.23,94.30,32.13,1015.42,138.40,22.20,347.00,17.50,388.33,2,-9.00,9,-9.00,0.13,6.95,102.60,22.94,258.23
AOML_Explorer,Ex0737N,252.993,09092007,23:49:43,40.131,-73.485,409.81,-9.00,1015.56,1013.70,21.92,22.06,31.807,1.21,94.26,32.13,1015.56,138.50,22.20,353.00,18.53,401.33,2,-9.00,9,-9.00,0.13,7.40,119.14,23.03,258.10
AOML_Explorer,Ex0737N,252.995,09092007,23:52:16,40.120,-73.471,414.25,-9.00,1015.54,1013.70,21.97,22.21,31.749,1.20,95.77,32.13,1015.54,138.60,22.20,351.00,18.01,407.22,2,-9.00,9,-9.00,0.11,7.01,113.01,23.07,257.86
AOML_Explorer,Ex0737N,252.996,09092007,23:54:49,40.108,-73.458,416.16,-9.00,1015.53,1013.70,22.13,22.41,31.770,1.21,94.29,32.12,1015.53,138.80,22.30,348.00,18.01,409.52,2,-9.00,9,-9.00,0.11,7.30,105.34,23.10,257.91
AOML_Explorer,Ex0737N,252.998,09092007,23:57:22,40.096,-73.444,418.81,-9.00,1015.66,1013.80,22.27,22.45,31.768,1.23,94.22,32.12,1015.66,138.90,22.40,353.00,18.53,410.44,2,-9.00,9,-9.00,0.10,7.32,118.47,23.06,258.44
AOML_Explorer,Ex0737N,253.000,09092007,23:59:55,40.084,-73.431,422.63,-9.00,1015.74,1013.80,22.44,22.44,31.745,1.23,94.30,32.12,1015.74,138.90,22.30,353.00,18.53,411.23,2,-9.00,9,-9.00,0.10,7.33,118.56,23.13,257.93
AOML_Explorer,Ex0737N,253.015,10092007,0:21:40,39.988,-73.320,402.61,-9.00,1015.72,1013.80,23.19,22.37,32.090,1.28,94.18,32.17,1015.72,126.50,15.60,5.00,14.93,378.46,2,-9.00,9,-9.00,0.10,6.91,133.76,23.61,256.98
AOML_Explorer,Ex0737N,253.017,10092007,0:24:13,39.983,-73.308,404.49,-9.00,1015.73,1013.80,22.76,22.24,32.062,1.26,94.28,32.17,1015.73,116.80,15.10,12.00,13.38,385.05,2,-9.00,9,-9.00,0.10,6.01,140.51,23.63,256.43
AOML_Explorer,Ex0737N,253.019,10092007,0:26:46,39.979,-73.295,405.75,-9.00,1015.83,1013.90,22.41,22.32,32.114,1.28,94.32,32.17,1015.83,103.10,14.90,23.00,13.38,393.40,2,-9.00,9,-9.00,0.09,6.97,149.14,23.65,256.60
AOML_Explorer,Ex0737N,253.020,10092007,0:29:19,39.978,-73.281,404.75,-9.00,1015.80,1013.90,22.37,22.54,32.108,1.27,94.31,32.17,1015.80,91.20,14.80,27.00,12.87,396.59,2,-9.00,9,-9.00,0.10,6.92,145.24,23.65,256.20
AOML_Explorer,Ex0737N,253.022,10092007,0:31:52,39.979,-73.268,404.38,-9.00,1015.78,1013.80,22.45,22.60,32.208,1.38,94.23,32.16,1015.78,78.60,15.00,33.00,11.84,395.96,2,-9.00,9,-9.00,0.08,6.76,147.10,23.63,255.78
AOML_Explorer,Ex0737N,253.024,10092007,0:34:25,39.982,-73.254,404.30,-9.00,1015.84,1014.00,22.56,22.64,32.181,1.54,94.40,32.15,1015.84,65.90,15.80,38.00,12.35,394.55,2,-9.00,9,-9.00,0.08,7.68,141.69,23.60,255.57
AOML_Explorer,Ex0737N,253.026,10092007,0:36:58,39.988,-73.242,404.19,-9.00,1015.90,1013.90,22.59,22.54,32.150,1.57,94.61,32.15,1015.90,53.30,15.30,45.00,12.35,392.43,2,-9.00,9,-9.00,0.09,8.71,135.90,23.59,256.10
AOML_Explorer,Ex0737N,253.027,10092007,0:39:31,39.995,-73.233,403.26,-9.00,1015.97,1013.70,22.66,22.78,32.024,1.54,94.64,32.15,1015.97,40.90,13.30,56.00,10.29,394.18,2,-9.00,9,-9.00,0.09,8.56,136.38,23.59,256.28
AOML_Explorer,Ex0737N,253.029,10092007,0:42:04,40.003,-73.226,403.42,-9.00,1016.12,1013.60,22.64,22.98,32.073,1.60,95.55,32.14,1016.12,31.20,12.00,63.00,9.26,397.88,2,-9.00,9,-9.00,0.09,8.47,133.80,23.56,256.22
AOML_Explorer,Ex0737N,253.031,10092007,0:44:37,40.010,-73.221,403.62,-9.00,1015.98,1013.60,22.76,22.99,32.030,1.60,94.34,32.14,1015.98,31.40,11.30,67.00,8.75,396.26,2,-9.00,9,-9.00,0.10,8.46,137.17,23.55,259.27
AOML_Explorer,Ex0737N,253.033,10092007,0:47:10,40.016,-73.216,405.72,-9.00,1015.95,1013.50,22.89,23.08,32.031,1.63,94.62,32.13,1015.95,30.70,11.00,72.00,8.24,397.53,2,-9.00,9,-9.00,0.10,8.47,141.70,23.50,268.91
AOML_Explorer,Ex0737N,253.035,10092007,0:49:43,40.023,-73.211,407.77,-9.00,1015.95,1013.60,22.96,23.15,32.015,1.66,94.45,32.13,1015.95,30.20,10.90,73.00,9.26,399.56,2,-9.00,9,-9.00,0.10,9.37,138.14,23.48,266.95
AOML_Explorer,Ex0737N,253.036,10092007,0:52:16,40.030,-73.206,410.17,-9.00,1015.96,1013.60,23.05,22.81,32.018,1.66,94.71,32.12,1015.96,30.20,10.80,74.00,8.24,394.82,2,-9.00,9,-9.00,0.10,8.61,142.52,23.46,274.26
AOML_Explorer,Ex0737N,253.038,10092007,0:54:49,40.037,-73.201,412.73,-9.00,1015.98,1013.60,23.08,22.90,31.935,1.69,94.67,32.12,1015.98,29.90,10.80,70.00,9.26,398.19,2,-9.00,9,-9.00,0.10,9.07,135.07,23.43,280.40
AOML_Explorer,Ex0737N,253.040,10092007,0:57:22,40.043,-73.196,414.29,-9.00,1016.00,1013.60,22.79,22.49,32.065,1.68,94.51,32.12,1016.00,22.20,10.70,61.00,8.24,398.13,2,-9.00,9,-9.00,0.10,7.31,122.23,23.45,269.60
AOML_Explorer,Ex0737N,253.042,10092007,0:59:55,40.051,-73.194,412.77,-9.00,1016.00,1013.60,22.86,22.59,31.933,1.65,94.66,32.12,1016.00,11.90,10.60,72.00,7.21,397.03,2,-9.00,9,-9.00,0.10,7.51,125.26,23.42,266.94
AOML_Explorer,Ex0737N,253.057,10092007,1:21:40,40.103,-73.231,419.65,-9.00,1015.86,1013.10,22.53,22.42,31.771,1.64,94.12,32.16,1015.86,294.00,10.30,289.00,5.15,406.50,2,-9.00,9,-9.00,0.11,6.19,165.55,23.29,292.67
AOML_Explorer,Ex0737N,253.058,10092007,1:24:13,40.105,-73.240,419.94,-9.00,1015.80,1013.00,22.56,22.56,31.786,1.62,94.14,32.16,1015.80,283.30,10.40,296.00,6.18,408.44,2,-9.00,9,-9.00,0.09,6.29,165.70,23.25,293.76
AOML_Explorer,Ex0737N,253.060,10092007,1:26:46,40.106,-73.249,419.94,-9.00,1015.68,1012.90,22.49,22.30,31.805,1.67,94.37,32.16,1015.68,270.00,10.30,299.00,7.72,405.38,2,-9.00,9,-9.00,0.10,7.12,164.39,23.29,290.89
AOML_Explorer,Ex0737N,253.062,10092007,1:29:19,40.105,-73.259,420.19,-9.00,1015.63,1012.70,22.50,22.44,31.741,1.64,94.33,32.16,1015.63,257.50,10.40,300.00,8.24,407.74,2,-9.00,9,-9.00,0.10,7.48,155.00,23.26,302.87
AOML_Explorer,Ex0737N,253.064,10092007,1:31:52,40.103,-73.268,419.73,-9.00,1015.57,1012.70,22.38,22.31,31.746,1.63,94.96,32.15,1015.57,245.50,10.40,304.00,8.24,407.07,2,-9.00,9,-9.00,0.11,7.15,145.49,23.32,310.14
AOML_Explorer,Ex0737N,253.066,10092007,1:34:25,40.099,-73.276,419.76,-9.00,1015.58,1012.70,22.41,22.34,31.739,1.64,93.31,32.14,1015.58,232.50,10.30,315.00,9.26,407.06,2,-9.00,9,-9.00,0.11,6.96,148.98,23.34,303.21
AOML_Explorer,Ex0737N,253.067,10092007,1:36:58,40.094,-73.283,419.74,-9.00,1015.64,1012.70,22.35,22.47,31.733,1.62,94.24,32.14,1015.64,220.10,10.20,323.00,10.81,410.32,2,-9.00,9,-9.00,0.10,7.61,152.19,23.37,302.49
AOML_Explorer,Ex0737N,253.069,10092007,1:39:31,40.088,-73.288,419.76,-9.00,1015.62,1012.70,22.37,22.48,31.767,1.64,94.46,32.13,1015.62,211.80,10.30,319.00,10.81,410.23,2,-9.00,9,-9.00,0.10,7.90,139.88,23.31,310.36
AOML_Explorer,Ex0737N,253.071,10092007,1:42:04,40.082,-73.293,420.45,-9.00,1015.55,1012.70,22.48,22.24,31.759,1.62,94.65,32.12,1015.55,210.80,10.50,329.00,10.81,404.90,2,-9.00,9,-9.00,0.10,6.93,152.38,23.33,307.15
AOML_Explorer,Ex0737N,253.073,10092007,1:44:37,40.075,-73.299,422.89,-9.00,1015.47,1012.70,22.50,22.36,31.720,1.63,94.60,32.12,1015.47,211.70,10.70,327.00,10.81,408.98,2,-9.00,9,-9.00,0.09,7.07,149.82,23.33,301.21
AOML_Explorer,Ex0737N,253.074,10092007,1:47:10,40.069,-73.304,423.73,-9.00,1015.43,1012.70,22.31,22.62,31.646,1.62,94.30,32.11,1015.43,211.70,10.70,325.00,10.81,417.45,2,-9.00,9,-9.00,0.09,7.23,147.46,23.35,301.85
AOML_Explorer,Ex0737N,253.076,10092007,1:49:43,40.062,-73.309,423.52,-9.00,1015.36,1012.70,22.39,22.67,31.691,1.62,94.19,32.11,1015.36,211.50,12.10,331.00,10.81,416.66,2,-9.00,9,-9.00,0.10,6.31,151.08,23.29,294.88
AOML_Explorer,Ex0737N,253.078,10092007,1:52:16,40.054,-73.316,424.87,-9.00,1015.31,1012.70,22.56,22.63,31.765,1.59,94.36,32.10,1015.31,211.80,13.90,327.00,12.35,414.27,2,-9.00,9,-9.00,0.11,7.64,144.95,23.29,268.38
AOML_Explorer,Ex0737N,253.080,10092007,1:54:49,40.045,-73.323,426.91,-9.00,1015.38,1012.60,22.66,22.68,31.756,1.45,94.61,32.10,1015.38,211.10,14.80,331.00,12.35,415.32,2,-9.00,9,-9.00,0.10,6.94,147.17,23.37,264.46
AOML_Explorer,Ex0737N,253.082,10092007,1:57:22,40.037,-73.330,427.31,-9.00,1015.41,1013.50,22.58,22.24,31.973,1.57,94.57,32.09,1015.41,211.50,13.80,335.00,12.35,409.84,2,-9.00,9,-9.00,0.13,6.77,156.95,23.43,264.15
AOML_Explorer,Ex0737N,253.083,10092007,1:59:55,40.029,-73.336,423.99,-9.00,1015.44,1013.60,22.58,22.36,31.813,1.60,94.35,32.09,1015.44,211.50,12.60,331.00,11.32,408.57,2,-9.00,9,-9.00,0.11,6.64,150.69,23.43,263.30
AOML_Explorer,Ex0737N,253.098,10092007,2:21:40,40.016,-73.346,396.92,-9.00,1015.22,1013.40,22.96,23.03,32.376,1.68,94.08,32.13,1015.22,0.00,0.00,335.00,10.81,386.66,2,-9.00,9,-9.00,0.07,6.03,158.35,23.65,267.67
AOML_Explorer,Ex0737N,253.100,10092007,2:24:13,39.960,-73.389,398.94,-9.00,1015.14,1013.40,22.95,23.09,32.304,1.66,94.16,32.13,1015.14,194.00,11.40,349.00,11.32,389.86,2,-9.00,9,-9.00,0.07,5.79,166.23,23.77,266.87
AOML_Explorer,Ex0737N,253.102,10092007,2:26:46,39.952,-73.389,399.84,-9.00,1015.18,1013.50,22.96,23.15,32.333,1.68,94.14,32.12,1015.18,157.10,10.60,14.00,11.32,391.46,2,-9.00,9,-9.00,0.07,5.99,179.38,23.71,279.63
AOML_Explorer,Ex0737N,253.104,10092007,2:29:19,39.947,-73.382,399.78,-9.00,1015.06,1013.40,23.08,22.96,32.357,1.69,94.02,32.12,1015.06,115.90,10.50,36.00,10.29,386.35,2,-9.00,9,-9.00,0.08,6.51,173.83,23.65,279.29
AOML_Explorer,Ex0737N,253.105,10092007,2:31:52,39.946,-73.373,400.13,-9.00,1015.13,1013.40,23.09,23.03,32.335,1.74,94.26,32.11,1015.13,90.30,11.10,43.00,10.29,387.73,2,-9.00,9,-9.00,0.07,7.16,165.10,23.59,283.43
AOML_Explorer,Ex0737N,253.107,10092007,2:34:25,39.946,-73.362,400.71,-9.00,1015.06,1013.40,22.96,23.15,32.312,1.74,94.23,32.11,1015.06,89.50,11.70,34.00,9.78,392.36,2,-9.00,9,-9.00,0.07,5.85,158.81,23.53,270.67
AOML_Explorer,Ex0737N,253.109,10092007,2:36:58,39.946,-73.351,400.86,-9.00,1015.06,1013.40,23.02,23.36,32.349,1.70,94.28,32.10,1015.06,89.20,11.90,36.00,9.78,394.89,2,-9.00,9,-9.00,0.07,6.09,162.50,23.49,258.32
AOML_Explorer,Ex0737N,253.111,10092007,2:39:31,39.946,-73.340,402.36,-9.00,1015.03,1013.40,23.12,23.33,32.405,1.70,94.52,32.10,1015.03,89.10,11.90,38.00,10.29,394.09,2,-9.00,9,-9.00,0.07,6.71,162.56,23.47,254.65
AOML_Explorer,Ex0737N,253.113,10092007,2:42:04,39.946,-73.329,404.52,-9.00,1014.99,1013.30,23.26,23.01,32.384,1.70,94.58,32.09,1014.99,89.00,12.00,40.00,10.29,388.81,2,-9.00,9,-9.00,0.07,6.92,165.53,23.50,255.79
AOML_Explorer,Ex0737N,253.114,10092007,2:44:37,39.946,-73.318,406.62,-9.00,1014.98,1013.20,23.16,22.95,32.374,1.68,94.28,32.09,1014.98,89.20,12.00,41.00,10.81,391.49,2,-9.00,9,-9.00,0.08,7.49,164.72,23.52,255.01
AOML_Explorer,Ex0737N,253.116,10092007,2:47:10,39.946,-73.307,405.14,-9.00,1015.02,1013.30,22.98,22.94,32.315,1.72,94.21,32.09,1015.02,89.20,12.00,39.00,10.81,392.87,2,-9.00,9,-9.00,0.08,7.23,161.78,23.54,255.48
AOML_Explorer,Ex0737N,253.118,10092007,2:49:43,39.946,-73.296,402.73,-9.00,1014.94,1013.30,22.90,23.06,32.351,1.72,94.37,32.08,1014.94,90.20,11.90,37.00,11.32,393.86,2,-9.00,9,-9.00,0.07,7.42,157.05,23.45,255.46
AOML_Explorer,Ex0737N,253.120,10092007,2:52:16,39.946,-73.285,400.97,-9.00,1014.90,1013.30,22.92,23.20,32.359,1.70,94.36,32.07,1014.90,90.20,11.90,39.00,10.81,393.85,2,-9.00,9,-9.00,0.08,7.21,161.69,23.42,255.70
AOML_Explorer,Ex0737N,253.121,10092007,2:54:49,39.946,-73.274,400.98,-9.00,1014.94,1013.30,23.07,23.21,32.372,1.73,91.96,32.08,1014.94,89.50,12.00,41.00,10.81,391.61,2,-9.00,9,-9.00,0.08,7.45,164.06,23.41,256.37
AOML_Explorer,Ex0737N,253.123,10092007,2:57:22,39.946,-73.263,402.14,-9.00,1014.96,1013.30,23.15,23.20,32.368,1.74,94.58,32.07,1014.96,91.30,11.90,32.00,11.32,391.30,2,-9.00,9,-9.00,0.08,7.02,152.79,23.40,257.31
AOML_Explorer,Ex0737N,253.125,10092007,2:59:55,39.945,-73.253,403.08,-9.00,1015.10,1012.90,23.15,23.12,32.383,1.75,94.13,32.07,1015.10,113.80,11.70,11.00,11.32,390.94,2,-9.00,9,-9.00,0.07,5.66,142.35,23.33,255.48
AOML_Explorer,Ex0737N,253.140,10092007,3:21:40,39.882,-73.167,400.10,-9.00,1015.17,1013.20,23.05,23.12,32.436,1.75,94.27,32.10,1015.17,133.40,19.80,3.00,16.99,389.77,2,-9.00,9,-9.00,0.07,6.81,138.93,23.48,252.07
AOML_Explorer,Ex0737N,253.142,10092007,3:24:13,39.872,-73.153,401.24,-9.00,1015.25,1013.20,23.03,23.08,32.484,1.77,93.91,32.10,1015.25,133.90,20.90,353.00,16.99,390.62,2,-9.00,9,-9.00,0.07,6.52,112.92,23.43,252.18
AOML_Explorer,Ex0737N,253.144,10092007,3:26:46,39.862,-73.139,401.59,-9.00,1015.21,1013.40,23.07,23.08,32.477,1.75,93.63,32.10,1015.21,133.60,21.80,358.00,18.01,390.38,2,-9.00,9,-9.00,0.07,6.81,126.88,23.42,252.49
AOML_Explorer,Ex0737N,253.145,10092007,3:29:19,39.851,-73.124,402.06,-9.00,1015.15,1013.50,23.07,22.89,32.461,1.78,93.97,32.10,1015.15,133.30,22.30,0.00,19.04,387.77,2,-9.00,9,-9.00,0.07,7.58,131.32,23.49,252.93
AOML_Explorer,Ex0737N,253.147,10092007,3:31:52,39.840,-73.109,402.51,-9.00,1015.17,1013.60,22.89,22.88,32.486,1.77,94.08,32.09,1015.17,133.10,22.50,2.00,18.53,390.97,2,-9.00,9,-9.00,0.07,6.95,136.83,23.62,252.92
AOML_Explorer,Ex0737N,253.149,10092007,3:34:25,39.829,-73.094,401.46,-9.00,1015.07,1013.50,22.90,22.81,32.454,1.79,94.13,32.08,1015.07,132.90,22.60,3.00,18.01,388.62,2,-9.00,9,-9.00,0.07,6.38,140.20,23.80,253.48
AOML_Explorer,Ex0737N,253.151,10092007,3:36:58,39.818,-73.079,401.55,-9.00,1015.09,1013.40,22.84,22.76,32.439,1.79,94.32,32.07,1015.09,133.00,22.70,358.00,17.50,388.85,2,-9.00,9,-9.00,0.07,5.81,125.45,23.77,253.64
AOML_Explorer,Ex0737N,253.152,10092007,3:39:31,39.807,-73.064,401.67,-9.00,1015.08,1013.50,22.71,22.92,32.477,1.79,94.11,32.06,1015.08,132.90,22.80,2.00,19.04,393.71,2,-9.00,9,-9.00,0.07,7.31,137.01,23.75,253.45
AOML_Explorer,Ex0737N,253.154,10092007,3:42:04,39.796,-73.048,401.24,-9.00,1015.05,1013.60,22.79,22.68,32.549,1.79,93.90,32.06,1015.05,133.10,22.80,0.00,19.04,388.11,2,-9.00,9,-9.00,0.07,7.30,131.47,23.93,254.30
AOML_Explorer,Ex0737N,253.156,10092007,3:44:37,39.785,-73.033,402.24,-9.00,1015.06,1013.50,22.84,22.85,32.540,1.78,94.01,32.05,1015.06,133.00,22.80,359.00,18.53,391.04,2,-9.00,9,-9.00,0.06,6.79,128.87,23.93,253.97
AOML_Explorer,Ex0737N,253.158,10092007,3:47:10,39.774,-73.018,403.10,-9.00,1015.07,1013.50,22.81,22.91,32.588,1.79,94.25,32.05,1015.07,134.90,22.90,0.00,18.53,393.35,2,-9.00,9,-9.00,0.07,6.74,134.71,24.01,253.39
AOML_Explorer,Ex0737N,253.160,10092007,3:49:43,39.762,-73.003,404.20,-9.00,1015.11,1013.50,22.77,23.03,32.429,1.78,94.15,32.04,1015.11,137.30,22.80,355.00,18.53,396.90,2,-9.00,9,-9.00,0.07,6.86,122.88,24.03,252.87
AOML_Explorer,Ex0737N,253.161,10092007,3:52:16,39.750,-72.989,405.10,-9.00,1015.11,1013.50,22.69,22.94,32.505,1.76,93.99,32.04,1015.11,137.50,22.90,4.00,18.01,397.76,2,-9.00,9,-9.00,0.08,6.27,148.63,23.87,252.27
AOML_Explorer,Ex0737N,253.163,10092007,3:54:49,39.738,-72.975,404.15,-9.00,1015.01,1013.40,22.96,23.06,32.414,1.77,94.04,32.03,1015.01,139.60,22.90,5.00,17.50,394.15,2,-9.00,9,-9.00,0.07,5.81,153.95,23.92,251.88
AOML_Explorer,Ex0737N,253.165,10092007,3:57:22,39.725,-72.962,405.65,-9.00,1015.12,1013.50,22.89,23.16,32.436,1.77,94.32,32.03,1015.12,139.30,22.90,4.00,18.01,398.49,2,-9.00,9,-9.00,0.07,6.26,150.10,23.92,252.24
AOML_Explorer,Ex0737N,253.167,10092007,3:59:55,39.713,-72.948,406.52,-9.00,1015.00,1013.30,23.11,23.05,32.383,1.76,94.33,32.02,1015.00,139.40,22.90,3.00,17.50,393.79,2,-9.00,9,-9.00,0.08,5.71,147.27,23.85,252.13
AOML_Explorer,Ex0737N,253.182,10092007,4:21:40,39.610,-72.831,409.85,-9.00,1014.89,1013.40,22.97,22.66,32.621,1.79,94.31,32.03,1014.89,134.60,22.10,23.00,15.96,393.03,2,-9.00,9,-9.00,0.06,6.92,195.94,23.63,251.57
AOML_Explorer,Ex0737N,253.183,10092007,4:24:13,39.599,-72.816,410.99,-9.00,1014.71,1013.50,22.91,22.88,32.603,1.80,94.15,32.02,1014.71,134.30,22.40,32.00,16.47,398.61,2,-9.00,9,-9.00,0.06,9.08,208.90,23.41,250.76
AOML_Explorer,Ex0737N,253.185,10092007,4:26:46,39.588,-72.801,409.61,-9.00,1014.76,1013.30,22.72,23.05,32.811,1.78,94.13,32.02,1014.76,132.90,22.50,32.00,15.44,403.24,2,-9.00,9,-9.00,0.05,8.26,212.17,23.44,250.30
AOML_Explorer,Ex0737N,253.187,10092007,4:29:19,39.577,-72.786,408.40,-9.00,1014.72,1013.40,22.98,22.92,32.994,1.79,94.27,32.01,1014.72,133.40,22.60,31.00,15.44,395.71,2,-9.00,9,-9.00,0.04,8.04,211.67,23.46,249.81
AOML_Explorer,Ex0737N,253.189,10092007,4:31:52,39.566,-72.771,409.44,-9.00,1014.78,1013.30,22.96,23.10,33.039,1.80,94.38,32.01,1014.78,133.20,22.70,27.00,15.44,399.88,2,-9.00,9,-9.00,0.05,7.21,206.20,23.56,249.86
AOML_Explorer,Ex0737N,253.191,10092007,4:34:25,39.555,-72.756,408.26,-9.00,1014.82,1013.30,22.91,23.11,33.155,1.80,94.38,32.00,1014.82,133.60,22.80,25.00,14.93,399.73,2,-9.00,9,-9.00,0.05,6.38,206.14,23.58,249.74
AOML_Explorer,Ex0737N,253.192,10092007,4:36:58,39.544,-72.741,407.29,-9.00,1014.81,1013.20,23.13,23.04,33.189,1.79,94.08,31.99,1014.81,133.10,22.80,31.00,15.96,394.04,2,-9.00,9,-9.00,0.05,8.30,209.26,23.58,248.81
AOML_Explorer,Ex0737N,253.194,10092007,4:39:31,39.533,-72.726,407.97,-9.00,1014.79,1013.30,23.05,23.16,33.325,1.78,94.39,31.99,1014.79,133.40,22.90,27.00,15.44,398.04,2,-9.00,9,-9.00,0.05,7.12,206.74,23.68,247.65
AOML_Explorer,Ex0737N,253.196,10092007,4:42:04,39.521,-72.711,406.76,-9.00,1014.94,1013.30,23.01,23.33,33.451,1.76,94.06,31.98,1014.94,133.60,22.90,32.00,15.44,400.24,2,-9.00,9,-9.00,0.04,8.11,213.80,23.78,245.63
AOML_Explorer,Ex0737N,253.198,10092007,4:44:37,39.510,-72.695,403.49,-9.00,1014.81,1013.30,23.15,23.56,33.679,1.78,94.30,31.98,1014.81,133.50,22.80,35.00,14.93,398.47,2,-9.00,9,-9.00,0.04,8.37,219.50,23.83,245.22
AOML_Explorer,Ex0737N,253.199,10092007,4:47:10,39.499,-72.680,397.76,-9.00,1014.89,1013.30,23.38,23.43,33.761,1.80,94.13,31.97,1014.89,134.20,22.90,33.00,13.90,386.81,2,-9.00,9,-9.00,0.04,7.37,224.33,23.78,246.03
AOML_Explorer,Ex0737N,253.201,10092007,4:49:43,39.487,-72.665,395.32,-9.00,1014.88,1013.30,23.40,23.45,33.701,1.80,94.35,31.97,1014.88,133.60,23.00,33.00,13.38,384.44,2,-9.00,9,-9.00,0.04,7.07,227.59,23.74,245.85
AOML_Explorer,Ex0737N,253.203,10092007,4:52:16,39.476,-72.650,394.83,-9.00,1014.88,1013.30,23.42,23.38,33.588,1.79,94.38,31.96,1014.88,133.90,22.90,31.00,13.90,382.51,2,-9.00,9,-9.00,0.04,6.94,222.14,23.82,246.43
AOML_Explorer,Ex0737N,253.205,10092007,4:54:49,39.465,-72.635,395.81,-9.00,1014.95,1013.40,23.35,23.39,33.616,1.79,94.31,31.96,1014.95,133.80,22.90,31.00,13.90,384.92,2,-9.00,9,-9.00,0.04,6.90,221.94,23.84,246.35
AOML_Explorer,Ex0737N,253.207,10092007,4:57:22,39.464,-72.633,397.59,-9.00,1014.88,1013.30,23.32,23.37,33.508,1.81,94.29,31.95,1014.88,0.00,0.00,24.00,13.90,386.79,2,-9.00,9,-9.00,0.04,5.53,212.34,23.73,246.32
AOML_Explorer,Ex0737N,253.208,10092007,4:59:55,39.464,-72.633,399.40,-9.00,1014.98,1013.70,23.29,23.41,33.504,1.77,94.30,31.95,1014.98,0.00,0.00,29.00,14.93,389.64,2,-9.00,9,-9.00,0.04,7.23,211.22,23.83,246.09
AOML_Explorer,Ex0737N,253.223,10092007,5:21:40,39.348,-72.477,410.13,-9.00,1014.91,1013.40,22.71,22.75,32.617,1.81,94.15,31.97,1014.91,133.50,22.80,20.00,14.41,399.24,2,-9.00,9,-9.00,0.07,5.02,201.39,24.48,252.78
AOML_Explorer,Ex0737N,253.225,10092007,5:24:13,39.337,-72.462,410.76,-9.00,1014.84,1013.40,22.71,22.82,32.654,1.80,94.17,31.97,1014.84,128.30,22.70,11.00,13.90,400.73,2,-9.00,9,-9.00,0.07,3.00,175.45,24.48,253.09
AOML_Explorer,Ex0737N,253.227,10092007,5:26:46,39.327,-72.445,411.56,-9.00,1015.00,1013.10,22.77,22.79,32.670,1.78,93.85,31.97,1015.00,129.80,22.80,6.00,13.38,400.22,2,-9.00,9,-9.00,0.07,1.94,162.19,24.52,253.15
AOML_Explorer,Ex0737N,253.229,10092007,5:29:19,39.317,-72.429,411.95,-9.00,1014.90,1013.30,22.82,22.89,32.582,1.79,94.44,31.97,1014.90,129.10,22.90,16.00,13.90,401.40,2,-9.00,9,-9.00,0.08,3.81,192.77,24.55,253.13
AOML_Explorer,Ex0737N,253.230,10092007,5:31:52,39.306,-72.413,412.09,-9.00,1014.93,1013.20,22.81,22.93,32.542,1.80,94.14,31.96,1014.93,129.20,23.00,9.00,12.87,402.23,2,-9.00,9,-9.00,0.07,1.83,188.18,24.56,253.18
AOML_Explorer,Ex0737N,253.232,10092007,5:34:25,39.296,-72.397,412.15,-9.00,1014.99,1013.30,22.89,22.88,32.576,1.79,94.35,31.96,1014.99,130.00,23.00,9.00,13.90,400.34,2,-9.00,9,-9.00,0.07,2.56,168.90,24.39,253.05
AOML_Explorer,Ex0737N,253.234,10092007,5:36:58,39.285,-72.381,412.76,-9.00,1015.07,1013.40,22.90,22.91,32.438,1.77,94.27,31.95,1015.07,130.10,22.80,8.00,13.90,401.21,2,-9.00,9,-9.00,0.07,2.46,163.33,24.31,252.66
AOML_Explorer,Ex0737N,253.236,10092007,5:39:31,39.275,-72.365,413.47,-9.00,1015.06,1013.40,22.88,22.85,32.555,1.79,94.07,31.95,1015.06,129.30,22.80,17.00,13.90,401.33,2,-9.00,9,-9.00,0.07,3.95,193.93,24.58,252.30
AOML_Explorer,Ex0737N,253.238,10092007,5:42:04,39.265,-72.349,412.91,-9.00,1015.05,1013.40,22.90,23.06,32.534,1.78,94.20,31.94,1015.05,129.50,22.70,7.00,13.90,403.70,2,-9.00,9,-9.00,0.07,2.49,159.13,24.58,251.25
AOML_Explorer,Ex0737N,253.239,10092007,5:44:37,39.254,-72.333,413.66,-9.00,1015.12,1013.40,22.87,23.54,33.045,1.77,94.50,31.94,1015.12,129.40,22.50,10.00,13.38,413.16,2,-9.00,9,-9.00,0.07,2.57,179.89,24.21,249.29
AOML_Explorer,Ex0737N,253.241,10092007,5:47:10,39.244,-72.318,412.43,-9.00,1015.11,1013.30,23.26,23.43,33.000,1.78,95.43,31.93,1015.11,131.10,22.70,4.00,12.35,403.17,2,-9.00,9,-9.00,0.06,0.88,171.73,23.81,249.28
AOML_Explorer,Ex0737N,253.243,10092007,5:49:43,39.233,-72.303,407.96,-9.00,1015.16,1013.30,23.43,23.21,32.746,1.78,94.23,31.93,1015.16,131.90,22.80,1.00,12.35,392.46,2,-9.00,9,-9.00,0.06,0.65,135.20,23.49,249.72
AOML_Explorer,Ex0737N,253.245,10092007,5:52:16,39.222,-72.287,408.53,-9.00,1015.19,1013.40,23.31,23.53,33.072,1.77,94.36,31.93,1015.19,133.00,22.80,2.00,13.38,400.30,2,-9.00,9,-9.00,0.05,1.65,140.54,23.72,247.14
AOML_Explorer,Ex0737N,253.246,10092007,5:54:49,39.211,-72.272,410.62,-9.00,1015.18,1013.30,23.20,23.67,34.021,1.77,94.18,31.93,1015.18,133.10,22.80,0.00,12.87,406.39,2,-9.00,9,-9.00,0.05,1.15,124.83,23.86,245.37
AOML_Explorer,Ex0737N,253.248,10092007,5:57:22,39.200,-72.257,404.82,-9.00,1015.16,1013.20,23.57,23.74,34.001,1.78,94.20,31.93,1015.16,132.30,22.90,357.00,12.35,395.75,2,-9.00,9,-9.00,0.05,0.96,82.08,23.87,245.19